| time (UTC) | temp F | wind direction | speed MPH | gust MPH | rain 1hr in | rain 24hr in | rain mn in | humidity % | barometer mb |
| 20260831050103 | 53 | 0 | 0.0 | 3.0 | 0.00 | 0.00 | 0.00 | 90 | 1016.0 |
| 20260831044644 | 54 | 0 | 0.0 | 3.0 | 0.00 | 0.00 | 0.00 | 90 | 1016.1 |
| 20260831043103 | 54 | 109 | 0.0 | 3.0 | 0.00 | 0.00 | 0.00 | 90 | 1016.1 |
| 20260831041609 | 55 | 107 | 0.0 | 2.0 | 0.00 | 0.00 | 0.00 | 88 | 1016.2 |
| 20260831040104 | 56 | 0 | 0.0 | 3.0 | 0.00 | 0.00 | 0.00 | 87 | 1016.4 |
| 20260831034609 | 57 | 108 | 1.0 | 3.0 | 0.00 | 0.00 | 0.00 | 85 | 1016.4 |
| 20260831033109 | 58 | 103 | 0.0 | 2.0 | 0.00 | 0.00 | 0.00 | 84 | 1016.3 |
| 20260831031559 | 59 | 0 | 0.0 | 3.0 | 0.00 | 0.00 | 0.00 | 83 | 1016.3 |
| 20260831030104 | 60 | 0 | 0.0 | 3.0 | 0.00 | 0.00 | 0.00 | 81 | 1016.4 |
| 20260831024602 | 62 | 0 | 0.0 | 2.0 | 0.00 | 0.00 | 0.00 | 77 | 1016.5 |
| 20260831023107 | 64 | 0 | 0.0 | 3.0 | 0.00 | 0.00 | 0.00 | 73 | 1016.6 |
| 20260831021558 | 65 | 0 | 0.0 | 2.0 | 0.00 | 0.00 | 0.00 | 69 | 1016.8 |
| 20260831020104 | 65 | 0 | 0.0 | 2.0 | 0.00 | 0.00 | 0.00 | 68 | 1016.7 |
| 20260831014600 | 66 | 0 | 0.0 | 3.0 | 0.00 | 0.00 | 0.00 | 68 | 1016.9 |
| 20260831013059 | 66 | 0 | 0.0 | 6.0 | 0.00 | 0.00 | 0.00 | 66 | 1016.8 |
| 20260831011602 | 67 | 0 | 0.0 | 3.0 | 0.00 | 0.00 | 0.00 | 63 | 1016.9 |
| 20260831010118 | 67 | 0 | 0.0 | 3.0 | 0.00 | 0.00 | 0.00 | 62 | 1017.1 |
| 20260831004610 | 68 | 0 | 0.0 | 2.0 | 0.00 | 0.00 | 0.00 | 60 | 1017.2 |
| 20260831003059 | 69 | 0 | 0.0 | 4.0 | 0.00 | 0.00 | 0.00 | 59 | 1017.1 |
| 20260831001604 | 69 | 331 | 0.0 | 5.0 | 0.00 | 0.00 | 0.00 | 60 | 1017.2 |
| 20260831000109 | 69 | 238 | 0.0 | 4.0 | 0.00 | 0.00 | 0.00 | 61 | 1017.3 |
| 20260830234624 | 68 | 0 | 0.0 | 5.0 | 0.00 | 0.00 | 0.00 | 59 | 1017.4 |
| 20260830233105 | 69 | 0 | 0.0 | 4.0 | 0.00 | 0.00 | 0.00 | 60 | 1017.6 |
| 20260830231607 | 68 | 0 | 0.0 | 3.0 | 0.00 | 0.00 | 0.00 | 61 | 1017.6 |
| 20260830230105 | 68 | 0 | 0.0 | 3.0 | 0.00 | 0.00 | 0.00 | 61 | 1017.8 |
| 20260830224603 | 68 | 0 | 0.0 | 5.0 | 0.00 | 0.00 | 0.00 | 61 | 1018.1 |
| 20260830223102 | 67 | 0 | 1.0 | 4.0 | 0.00 | 0.00 | 0.00 | 60 | 1018.6 |
| 20260830221608 | 67 | 0 | 1.0 | 4.0 | 0.00 | 0.00 | 0.00 | 61 | 1018.9 |
| 20260830220106 | 67 | 243 | 1.0 | 4.0 | 0.00 | 0.00 | 0.00 | 62 | 1019.1 |
| 20260830214607 | 67 | 0 | 0.0 | 2.0 | 0.00 | 0.00 | 0.00 | 59 | 1019.0 |
| 20260830213115 | 67 | 287 | 1.0 | 4.0 | 0.00 | 0.00 | 0.00 | 62 | 1019.3 |
| 20260830211608 | 67 | 0 | 0.0 | 4.0 | 0.00 | 0.00 | 0.00 | 62 | 1019.4 |
| 20260830210105 | 66 | 0 | 0.0 | 4.0 | 0.00 | 0.00 | 0.00 | 60 | 1019.6 |
| 20260830204559 | 66 | 0 | 0.0 | 4.0 | 0.00 | 0.00 | 0.00 | 63 | 1019.7 |
| 20260830203104 | 66 | 0 | 0.0 | 4.0 | 0.00 | 0.00 | 0.00 | 68 | 1019.9 |
| 20260830201607 | 65 | 229 | 0.0 | 4.0 | 0.00 | 0.00 | 0.00 | 66 | 1020.1 |
| 20260830200107 | 63 | 352 | 0.0 | 4.0 | 0.00 | 0.00 | 0.00 | 68 | 1020.0 |
| 20260830194602 | 64 | 0 | 0.0 | 4.0 | 0.00 | 0.00 | 0.00 | 66 | 1020.2 |
| 20260830193104 | 63 | 0 | 0.0 | 5.0 | 0.00 | 0.00 | 0.00 | 69 | 1020.4 |
| 20260830191603 | 62 | 0 | 0.0 | 4.0 | 0.00 | 0.00 | 0.00 | 72 | 1020.5 |
| 20260830184601 | 60 | 0 | 0.0 | 2.0 | 0.00 | 0.00 | 0.00 | 74 | 1020.8 |
| 20260830183104 | 60 | 250 | 1.0 | 5.0 | 0.00 | 0.00 | 0.00 | 74 | 1020.8 |
| 20260830181602 | 59 | 0 | 0.0 | 3.0 | 0.00 | 0.00 | 0.00 | 74 | 1020.8 |
| 20260830174617 | 58 | 0 | 0.0 | 2.0 | 0.00 | 0.00 | 0.00 | 83 | 1020.8 |
| 20260830173100 | 58 | 0 | 0.0 | 3.0 | 0.00 | 0.00 | 0.00 | 85 | 1020.8 |
| 20260830171602 | 57 | 0 | 0.0 | 2.0 | 0.00 | 0.00 | 0.00 | 87 | 1020.7 |
| 20260830170058 | 57 | 0 | 0.0 | 3.0 | 0.00 | 0.00 | 0.00 | 90 | 1020.7 |
| 20260830164604 | 55 | 0 | 0.0 | 3.0 | 0.00 | 0.00 | 0.00 | 92 | 1020.6 |
| 20260830163057 | 54 | 272 | 0.0 | 1.0 | 0.00 | 0.00 | 0.00 | 94 | 1020.8 |
| 20260830161621 | 53 | 0 | 0.0 | 3.0 | 0.00 | 0.00 | 0.00 | 96 | 1020.8 |
| 20260830160104 | 52 | 0 | 0.0 | 1.0 | 0.00 | 0.00 | 0.00 | 98 | 1020.8 |
| 20260830154600 | 52 | 0 | 0.0 | 0.0 | 0.00 | 0.00 | 0.00 | 99 | 1020.7 |
| 20260830153104 | 51 | 0 | 0.0 | 1.0 | 0.00 | 0.00 | 0.00 | 99 | 1020.9 |
| 20260830151603 | 50 | 0 | 0.0 | 0.0 | 0.00 | 0.00 | 0.00 | 98 | 1021.1 |
| 20260830150120 | 49 | 0 | 0.0 | 0.0 | 0.00 | 0.00 | 0.00 | 98 | 1021.0 |
| 20260830144600 | 49 | 0 | 0.0 | 0.0 | 0.00 | 0.00 | 0.00 | 97 | 1021.1 |
| 20260830143105 | 49 | 0 | 0.0 | 0.0 | 0.00 | 0.00 | 0.00 | 97 | 1021.2 |
| 20260830141602 | 49 | 0 | 0.0 | 0.0 | 0.00 | 0.00 | 0.00 | 97 | 1021.0 |
| 20260830140109 | 49 | 0 | 0.0 | 0.0 | 0.00 | 0.00 | 0.00 | 97 | 1021.1 |
| 20260830134600 | 49 | 0 | 0.0 | 0.0 | 0.00 | 0.03 | 0.00 | 97 | 1021.0 |
| 20260830133103 | 49 | 0 | 0.0 | 0.0 | 0.00 | 0.03 | 0.00 | 97 | 1020.9 |
| 20260830131601 | 49 | 0 | 0.0 | 0.0 | 0.00 | 0.03 | 0.00 | 97 | 1020.8 |
| 20260830130110 | 49 | 0 | 0.0 | 0.0 | 0.00 | 0.03 | 0.00 | 97 | 1020.6 |
| 20260830124600 | 49 | 0 | 0.0 | 0.0 | 0.00 | 0.04 | 0.00 | 97 | 1020.7 |
| 20260830123103 | 48 | 0 | 0.0 | 0.0 | 0.00 | 0.04 | 0.00 | 97 | 1020.6 |
| 20260830121602 | 48 | 0 | 0.0 | 2.0 | 0.00 | 0.04 | 0.00 | 96 | 1020.6 |
| 20260830120103 | 48 | 0 | 0.0 | 1.0 | 0.00 | 0.04 | 0.00 | 96 | 1020.6 |
| 20260830114617 | 49 | 113 | 0.0 | 3.0 | 0.00 | 0.04 | 0.00 | 96 | 1020.5 |
| 20260830113104 | 49 | 0 | 0.0 | 0.0 | 0.00 | 0.04 | 0.00 | 96 | 1020.5 |
| 20260830111604 | 49 | 0 | 0.0 | 0.0 | 0.00 | 0.04 | 0.00 | 96 | 1020.5 |
| 20260830104606 | 50 | 0 | 0.0 | 0.0 | 0.00 | 0.04 | 0.00 | 97 | 1020.6 |
| 20260830103102 | 49 | 0 | 0.0 | 4.0 | 0.00 | 0.04 | 0.00 | 97 | 1020.6 |
| 20260830101605 | 48 | 0 | 0.0 | 0.0 | 0.00 | 0.04 | 0.00 | 97 | 1020.4 |
| 20260830100059 | 48 | 0 | 0.0 | 1.0 | 0.00 | 0.04 | 0.00 | 96 | 1020.5 |
| 20260830094604 | 47 | 0 | 0.0 | 2.0 | 0.00 | 0.04 | 0.00 | 96 | 1020.5 |
| 20260830093101 | 47 | 0 | 0.0 | 2.0 | 0.00 | 0.04 | 0.00 | 96 | 1020.5 |
| 20260830091601 | 47 | 0 | 0.0 | 2.0 | 0.00 | 0.04 | 0.00 | 95 | 1020.5 |
| 20260830090128 | 47 | 0 | 0.0 | 3.0 | 0.00 | 0.04 | 0.00 | 95 | 1020.6 |
| 20260830084602 | 47 | 109 | 0.0 | 3.0 | 0.00 | 0.04 | 0.00 | 94 | 1020.7 |
| 20260830083102 | 47 | 0 | 0.0 | 3.0 | 0.00 | 0.04 | 0.00 | 94 | 1020.6 |
| 20260830081603 | 47 | 0 | 0.0 | 1.0 | 0.00 | 0.04 | 0.00 | 93 | 1020.6 |
| 20260830080104 | 48 | 0 | 0.0 | 3.0 | 0.00 | 0.04 | 0.00 | 93 | 1020.5 |
| 20260830074623 | 48 | 0 | 0.0 | 3.0 | 0.00 | 0.04 | 0.00 | 93 | 1020.5 |
| 20260830073101 | 49 | 101 | 0.0 | 2.0 | 0.00 | 0.04 | 0.00 | 92 | 1020.5 |
| 20260830071602 | 49 | 0 | 1.0 | 3.0 | 0.00 | 0.04 | 0.00 | 92 | 1020.6 |
| 20260830070104 | 50 | 105 | 0.0 | 3.0 | 0.00 | 0.04 | 0.00 | 91 | 1020.7 |
| 20260830064603 | 50 | 0 | 1.0 | 4.0 | 0.00 | 0.04 | 0.04 | 90 | 1020.5 |
| 20260830063059 | 51 | 0 | 0.0 | 4.0 | 0.00 | 0.04 | 0.04 | 89 | 1020.5 |
| 20260830061600 | 52 | 0 | 0.0 | 4.0 | 0.00 | 0.04 | 0.04 | 88 | 1020.4 |
| 20260830060101 | 52 | 0 | 0.0 | 2.0 | 0.00 | 0.04 | 0.04 | 88 | 1020.5 |
| 20260830054622 | 51 | 0 | 0.0 | 3.0 | 0.00 | 0.04 | 0.04 | 88 | 1020.5 |
| 20260830053102 | 51 | 0 | 0.0 | 3.0 | 0.00 | 0.04 | 0.04 | 88 | 1020.4 |
| 20260830051558 | 51 | 117 | 1.0 | 5.0 | 0.00 | 0.04 | 0.04 | 88 | 1020.4 |